PWSat 2 (43814 NORAD) Tracking and Keplerian Element Data

This shows tracking and keplerian element data for the satellite.

Feedback or suggestion? Click here.




ElementValue
Catalog43814
NamePWSat 2
Epoch Orbit610
Epoch Day17.66342566
Epoch Year2019
RAAN91.3664
Inclination97.7616
Eccentricity0.0010721
Argument of Perigee135.3634
Mean Anonmoly224.845
Mean Motion14.95318926
Decay Rate0.00010032
L11 43814U 18099BJ 19017.66342566 .00010032 00000-0 91353-3 0 9993
L22 43814 97.7616 91.3664 0010721 135.3634 224.8450 14.95318926 6103

Live tracking and technical data element details for PWSat 2 (NORAD 43814). PWSat 2 can be tracked NOW for your location showing map with azimuth and elevation plus other details from your city location.

Track the satellite on the map from your city or location and see movement details for azimuth, elevation, latitude, longitude, range, height, and movement on the map or in text.







IsCatalogInMostPopularTable: catalog: 43814, numindb: 104
Update: records affected: 1



GetName: 43814 PWSat 2

Hit Count: updated at: Wed, 23 Jan 2019 03:42:58 GMT